LHA2544 LDZA-EDDP

Flight info

Callsign LHA2544
Flight time N/A
Altitude 32000
Route OBUTI DCT INSAX DCT LOKVU DCT LEGAZ DCT BEFRE DCT IVQOQ T951 YAWOY
Aircraft A319/M-SDE1E2FGIRWYZ/S

Departure

Time 2026-04-27 08:24
Airport Zagreb Franjo Tuđman International Airport (LDZA)

Arrival

Time N/A
Airport Leipzig/Halle Airport (EDDP)
Time Latitude Longitude Altitude Speed Heading
2026-04-27 07:55 45.74285 16.08013 353 ft 0 kts 136°
2026-04-27 08:13 45.74287 16.08010 353 ft 3 kts 136°
2026-04-27 08:13 45.74306 16.07984 353 ft 3 kts 136°
2026-04-27 08:14 45.74325 16.07958 352 ft 3 kts 136°
2026-04-27 08:14 45.74345 16.07936 352 ft 3 kts 166°
2026-04-27 08:14 45.74369 16.07944 352 ft 3 kts 219°
2026-04-27 08:14 45.74371 16.07947 352 ft 0 kts 225°
2026-04-27 08:16 45.74357 16.07926 352 ft 5 kts 226°
2026-04-27 08:16 45.74319 16.07867 350 ft 10 kts 227°
2026-04-27 08:16 45.74261 16.07771 350 ft 14 kts 230°
2026-04-27 08:17 45.74189 16.07654 350 ft 16 kts 225°
2026-04-27 08:17 45.74106 16.07534 350 ft 17 kts 228°
2026-04-27 08:17 45.74084 16.07382 350 ft 17 kts 307°
2026-04-27 08:17 45.74173 16.07255 348 ft 18 kts 311°
2026-04-27 08:18 45.74174 16.07093 346 ft 19 kts 226°
2026-04-27 08:18 45.74083 16.06956 348 ft 18 kts 227°
2026-04-27 08:18 45.73998 16.06822 350 ft 17 kts 226°
2026-04-27 08:18 45.73911 16.06691 350 ft 18 kts 226°
2026-04-27 08:19 45.73820 16.06562 350 ft 18 kts 225°
2026-04-27 08:19 45.73730 16.06430 350 ft 18 kts 226°
2026-04-27 08:19 45.73638 16.06293 350 ft 19 kts 226°
2026-04-27 08:19 45.73547 16.06156 350 ft 19 kts 226°
2026-04-27 08:20 45.73455 16.06018 351 ft 18 kts 225°
2026-04-27 08:20 45.73364 16.05885 351 ft 19 kts 226°
2026-04-27 08:20 45.73272 16.05746 351 ft 19 kts 226°
2026-04-27 08:20 45.73179 16.05602 350 ft 19 kts 228°
2026-04-27 08:21 45.73102 16.05466 350 ft 13 kts 244°
2026-04-27 08:21 45.73095 16.05355 350 ft 5 kts 284°
2026-04-27 08:21 45.73114 16.05314 350 ft 2 kts 318°
2026-04-27 08:21 45.73117 16.05309 350 ft 0 kts 321°
2026-04-27 08:22 45.73148 16.05276 350 ft 9 kts 323°
2026-04-27 08:22 45.73212 16.05247 350 ft 11 kts 25°
2026-04-27 08:22 45.73244 16.05285 350 ft 0 kts 46°
2026-04-27 08:23 45.73372 16.05479 351 ft 69 kts 46°
2026-04-27 08:23 45.73905 16.06284 350 ft 148 kts 46°
2026-04-27 08:24 45.74717 16.07548 661 ft 185 kts 48°
2026-04-27 08:24 45.75536 16.08873 1676 ft 177 kts 47°
2026-04-27 08:24 45.76342 16.10088 2653 ft 175 kts 45°
2026-04-27 08:24 45.77223 16.11392 3304 ft 191 kts 45°
2026-04-27 08:25 45.78187 16.12828 3888 ft 214 kts 46°
2026-04-27 08:25 45.79247 16.14419 4572 ft 233 kts 46°
2026-04-27 08:25 45.80400 16.16163 5272 ft 253 kts 46°
2026-04-27 08:25 45.81647 16.18054 5783 ft 266 kts 46°
2026-04-27 08:26 45.82928 16.20002 6291 ft 276 kts 46°
2026-04-27 08:26 45.84230 16.21988 7380 ft 277 kts 46°
2026-04-27 08:26 45.85539 16.23988 8487 ft 277 kts 46°
2026-04-27 08:26 45.86843 16.25982 9472 ft 281 kts 46°
2026-04-27 08:27 45.88181 16.28027 10433 ft 285 kts 46°
2026-04-27 08:27 45.89535 16.30160 11179 ft 297 kts 49°
2026-04-27 08:27 45.90821 16.32509 12042 ft 303 kts 51°
2026-04-27 08:27 45.92070 16.34903 12967 ft 306 kts 51°
2026-04-27 08:28 45.93424 16.37259 13890 ft 306 kts 40°
2026-04-27 08:28 45.95199 16.38817 14773 ft 305 kts 18°
2026-04-27 08:28 45.97288 16.39325 15484 ft 311 kts 358°
2026-04-27 08:28 45.99481 16.38853 15942 ft 327 kts 349°
2026-04-27 08:29 46.01700 16.38175 16661 ft 332 kts 348°
2026-04-27 08:29 46.03929 16.37486 17494 ft 332 kts 348°
2026-04-27 08:29 46.06204 16.36792 18322 ft 333 kts 349°
2026-04-27 08:30 46.10866 16.35393 19908 ft 335 kts 349°
2026-04-27 08:30 46.13148 16.34715 20591 ft 338 kts 349°
2026-04-27 08:30 46.15461 16.34028 21157 ft 344 kts 349°
2026-04-27 08:30 46.17816 16.33330 21827 ft 346 kts 349°
2026-04-27 08:31 46.20144 16.32640 22508 ft 347 kts 349°
2026-04-27 08:31 46.22518 16.31936 23174 ft 348 kts 349°
2026-04-27 08:31 46.24867 16.31239 23805 ft 349 kts 348°
2026-04-27 08:31 46.27248 16.30533 24336 ft 352 kts 348°
2026-04-27 08:32 46.29653 16.29819 24698 ft 359 kts 348°
2026-04-27 08:32 46.32103 16.29091 25196 ft 362 kts 348°
2026-04-27 08:32 46.34568 16.28357 25753 ft 363 kts 348°
2026-04-27 08:32 46.37029 16.27623 26291 ft 364 kts 348°
2026-04-27 08:33 46.39518 16.26877 26812 ft 366 kts 348°
2026-04-27 08:33 46.42001 16.26127 27313 ft 367 kts 348°
2026-04-27 08:33 46.44491 16.25377 27797 ft 368 kts 348°
2026-04-27 08:33 46.46975 16.24628 28266 ft 369 kts 348°
2026-04-27 08:34 46.49491 16.23870 28729 ft 370 kts 348°
2026-04-27 08:34 46.51985 16.23118 29192 ft 371 kts 348°
2026-04-27 08:34 46.54495 16.22362 29791 ft 368 kts 347°
2026-04-27 08:34 46.56967 16.21618 30425 ft 363 kts 347°
2026-04-27 08:35 46.59436 16.20874 31006 ft 360 kts 347°
2026-04-27 08:35 46.61850 16.20145 31463 ft 360 kts 347°
2026-04-27 08:35 46.64316 16.19400 31868 ft 360 kts 347°
2026-04-27 08:35 46.66739 16.18666 32197 ft 362 kts 347°
2026-04-27 08:36 46.71666 16.17172 32267 ft 362 kts 347°
2026-04-27 08:36 46.76607 16.15671 32269 ft 362 kts 347°
2026-04-27 08:37 46.81508 16.14181 32270 ft 362 kts 347°
2026-04-27 08:37 46.86418 16.12687 32270 ft 362 kts 347°
2026-04-27 08:38 46.91349 16.11190 32270 ft 362 kts 346°
2026-04-27 08:38 46.96248 16.09699 32266 ft 361 kts 345°
2026-04-27 08:39 47.01099 16.08345 32263 ft 362 kts 347°
2026-04-27 08:39 47.06093 16.07524 32264 ft 363 kts 349°
2026-04-27 08:40 47.11135 16.06865 32248 ft 363 kts 349°
2026-04-27 08:40 47.16135 16.06218 32199 ft 363 kts 349°
2026-04-27 08:41 47.21153 16.05571 32136 ft 363 kts 349°
2026-04-27 08:41 47.26169 16.04924 32082 ft 364 kts 349°
2026-04-27 08:42 47.31189 16.04276 32057 ft 365 kts 349°
2026-04-27 08:42 47.36237 16.03624 32050 ft 365 kts 349°
2026-04-27 08:43 47.41270 16.02973 32049 ft 365 kts 349°
2026-04-27 08:43 47.46323 16.02319 32044 ft 365 kts 349°
2026-04-27 08:44 47.51366 16.01664 32034 ft 365 kts 349°
2026-04-27 08:44 47.56369 16.01013 32021 ft 365 kts 349°
2026-04-27 08:45 47.61408 16.00356 32012 ft 365 kts 349°
2026-04-27 08:45 47.66450 15.99698 32008 ft 365 kts 349°
2026-04-27 08:46 47.71524 15.99034 32006 ft 365 kts 349°
2026-04-27 08:46 47.76565 15.98373 32005 ft 365 kts 349°
2026-04-27 08:47 47.81604 15.97711 32005 ft 365 kts 349°
2026-04-27 08:47 47.86627 15.97049 32005 ft 365 kts 349°
2026-04-27 08:48 47.91674 15.96384 32005 ft 365 kts 349°
2026-04-27 08:48 47.96715 15.95718 32004 ft 365 kts 349°
2026-04-27 08:49 48.01742 15.95052 32004 ft 365 kts 349°
2026-04-27 08:49 48.06794 15.94382 32004 ft 365 kts 349°
2026-04-27 08:50 48.11828 15.93713 32007 ft 365 kts 349°
2026-04-27 08:50 48.16873 15.93041 32005 ft 365 kts 349°
2026-04-27 08:51 48.21882 15.92373 32005 ft 365 kts 349°
2026-04-27 08:51 48.26943 15.91696 32004 ft 365 kts 349°
2026-04-27 08:52 48.31976 15.91022 32005 ft 365 kts 349°
2026-04-27 08:52 48.37001 15.90348 32004 ft 365 kts 349°
2026-04-27 08:53 48.42051 15.89669 32004 ft 365 kts 349°
2026-04-27 08:53 48.47062 15.88993 32005 ft 365 kts 349°
2026-04-27 08:54 48.52103 15.88313 32010 ft 365 kts 349°
2026-04-27 08:54 48.57132 15.87632 32045 ft 365 kts 349°
2026-04-27 08:55 48.62190 15.86947 32106 ft 365 kts 349°
2026-04-27 08:55 48.67198 15.86267 32176 ft 364 kts 349°
2026-04-27 08:56 48.72229 15.85583 32226 ft 363 kts 349°
2026-04-27 08:56 48.77239 15.84901 32250 ft 363 kts 349°
2026-04-27 08:57 48.84550 15.83601 32264 ft 360 kts 345°
2026-04-27 08:58 48.89380 15.81982 32267 ft 358 kts 341°
2026-04-27 08:58 48.94100 15.79729 32267 ft 356 kts 338°
2026-04-27 08:59 48.98777 15.77156 32267 ft 358 kts 337°
2026-04-27 08:59 49.03430 15.74572 32267 ft 360 kts 336°
2026-04-27 09:00 49.08132 15.71944 32267 ft 363 kts 335°
2026-04-27 09:00 49.12890 15.69273 32269 ft 365 kts 335°
2026-04-27 09:01 49.17647 15.66589 32268 ft 365 kts 335°
2026-04-27 09:01 49.22366 15.63922 32268 ft 365 kts 335°
2026-04-27 09:02 49.27123 15.61229 32268 ft 365 kts 335°
2026-04-27 09:02 49.31875 15.58535 32269 ft 365 kts 335°
2026-04-27 09:03 49.36607 15.55846 32272 ft 365 kts 335°
2026-04-27 09:03 49.41355 15.53144 32278 ft 365 kts 335°
2026-04-27 09:04 49.46110 15.50433 32285 ft 365 kts 335°
2026-04-27 09:04 49.50844 15.47727 32291 ft 365 kts 335°
2026-04-27 09:05 49.55577 15.45016 32293 ft 365 kts 335°
2026-04-27 09:05 49.60327 15.42291 32294 ft 365 kts 335°
2026-04-27 09:06 49.65052 15.39573 32294 ft 365 kts 335°
2026-04-27 09:06 49.69766 15.36857 32294 ft 365 kts 335°
2026-04-27 09:07 49.74531 15.34104 32296 ft 364 kts 334°
2026-04-27 09:07 49.79242 15.31378 32295 ft 364 kts 334°
2026-04-27 09:08 49.83974 15.28636 32295 ft 364 kts 334°
2026-04-27 09:08 49.88721 15.25877 32293 ft 364 kts 334°
2026-04-27 09:09 49.93425 15.23138 32291 ft 364 kts 334°
2026-04-27 09:09 49.98178 15.20367 32292 ft 365 kts 334°
2026-04-27 09:10 50.02914 15.17596 32294 ft 365 kts 334°
2026-04-27 09:10 50.07613 15.14842 32294 ft 364 kts 334°
2026-04-27 09:11 50.11206 15.12732 32297 ft 364 kts 334°
2026-04-27 09:11 50.15938 15.09951 32294 ft 365 kts 334°
2026-04-27 09:12 50.20658 15.07170 32294 ft 365 kts 334°
2026-04-27 09:12 50.25412 15.04362 32294 ft 366 kts 334°
2026-04-27 09:13 50.30161 15.01550 32294 ft 367 kts 334°
2026-04-27 09:13 50.34929 14.98722 32294 ft 368 kts 334°
2026-04-27 09:14 50.39702 14.95885 32294 ft 368 kts 334°
2026-04-27 09:14 50.44485 14.93036 32294 ft 369 kts 333°
2026-04-27 09:15 50.49273 14.90178 32294 ft 370 kts 333°
2026-04-27 09:15 50.54074 14.87306 32294 ft 371 kts 333°
2026-04-27 09:16 50.58856 14.84438 32294 ft 371 kts 333°
2026-04-27 09:16 50.63682 14.81572 32294 ft 372 kts 335°
2026-04-27 09:17 50.68631 14.79225 32294 ft 376 kts 339°
2026-04-27 09:17 50.73712 14.77312 32294 ft 376 kts 340°
2026-04-27 09:18 50.78786 14.75446 32294 ft 375 kts 340°
2026-04-27 09:18 50.83816 14.73406 32293 ft 371 kts 334°
2026-04-27 09:19 50.88340 14.69864 32294 ft 363 kts 323°
2026-04-27 09:19 50.92183 14.64761 32294 ft 360 kts 312°
2026-04-27 09:20 50.95150 14.58371 32293 ft 362 kts 301°
2026-04-27 09:20 50.97087 14.51028 32295 ft 365 kts 290°
2026-04-27 09:21 50.98519 14.43313 32294 ft 365 kts 290°
2026-04-27 09:21 50.99884 14.35731 32294 ft 364 kts 289°
2026-04-27 09:22 51.00692 14.31189 32296 ft 364 kts 289°